CW9785 Weather Reports


time (UTC)temp
C
wind
direction
speed
KPH
gust
KPH
rain 1hr
cm
rain 24hr
cm
rain mn
cm
humidity
%
barometer
mb
20260505070539 14 57 30.6 46.7 0.00 0.00 0.00 50 1003.2
20260505070027 15 32 30.6 45.1 0.00 0.00 0.00 49 1003.2
20260505065538 15 38 29.0 43.5 0.00 0.00 0.00 49 1003.3
20260505065020 15 22 29.0 51.5 0.00 0.00 0.00 49 1003.4
20260505064530 15 53 25.7 51.5 0.00 0.00 0.00 49 1003.4
20260505064057 15 40 27.4 46.7 0.00 0.00 0.00 50 1003.5
20260505063547 15 18 29.0 49.9 0.00 0.00 0.00 50 1003.5
20260505063027 15 30 30.6 49.9 0.00 0.00 0.00 51 1003.5
20260505062537 15 51 25.7 46.7 0.00 0.00 0.00 51 1003.4
20260505062019 16 38 24.1 41.8 0.00 0.00 0.00 51 1003.5
20260505061530 16 29 24.1 41.8 0.00 0.00 0.00 50 1003.5
20260505061041 16 13 20.9 40.2 0.00 0.00 0.00 50 1003.5
20260505060523 16 33 22.5 38.6 0.00 0.00 0.00 51 1003.4
20260505060032 16 35 22.5 38.6 0.00 0.00 0.00 52 1003.4
20260505055521 16 42 22.5 37.0 0.00 0.00 0.00 53 1003.4
20260505055022 16 27 20.9 40.2 0.00 0.00 0.00 55 1003.3
20260505054532 16 26 24.1 40.2 0.00 0.00 0.00 56 1003.3
20260505054044 16 34 22.5 30.6 0.00 0.00 0.00 57 1003.2
20260505053525 16 29 16.1 32.2 0.00 0.00 0.00 57 1003.0
20260505053035 16 24 20.9 32.2 0.00 0.00 0.00 57 1002.9
20260505052546 16 28 20.9 30.6 0.00 0.00 0.00 57 1002.7
20260505052028 17 11 20.9 29.0 0.00 0.00 0.00 57 1002.6
20260505051518 17 360 19.3 29.0 0.00 0.00 0.00 57 1002.5
20260505051020 17 34 17.7 25.7 0.00 0.00 0.00 56 1002.4
20260505050527 17 35 16.1 25.7 0.00 0.00 0.00 56 1002.3
20260505041539 18 34 9.7 16.1 0.00 0.00 0.00 58 1000.9
20260505041029 18 30 6.4 9.7 0.00 0.00 0.00 58 1000.8
20260505040540 18 63 4.8 12.9 0.00 0.00 0.00 58 1000.9
20260505040020 18 75 4.8 12.9 0.00 0.00 0.00 59 1000.9
20260505035531 18 19 3.2 9.7 0.00 0.00 0.00 59 1000.8
20260505035058 18 71 3.2 12.9 0.00 0.00 0.00 60 1000.9
20260505034519 18 92 4.8 16.1 0.00 0.00 0.00 59 1000.8
20260505034030 18 105 6.4 16.1 0.00 0.00 0.00 58 1000.7
20260505033521 18 82 6.4 9.7 0.00 0.00 0.00 58 1000.6
20260505033021 19 106 3.2 9.7 0.00 0.00 0.00 58 1000.7
20260505032603 19 88 1.6 9.7 0.00 0.00 0.00 58 1000.8
20260505032023 20 55 3.2 11.3 0.00 0.00 0.00 57 1000.7
20260505031534 20 87 4.8 12.9 0.00 0.00 0.00 55 1000.6
20260505031105 20 100 4.8 16.1 0.00 0.00 0.00 54 1000.5
20260505030521 20 114 11.3 16.1 0.00 0.00 0.00 53 1000.4
20260505030051 20 78 11.3 16.1 0.00 0.00 0.00 53 1000.4
20260505025520 20 100 4.8 16.1 0.00 0.00 0.00 53 1000.4
20260505025022 20 46 6.4 17.7 0.00 0.00 0.00 50 1000.3
20260505024533 20 50 9.7 17.7 0.00 0.00 0.00 49 1000.3
20260505024024 21 9 3.2 16.1 0.00 0.00 0.00 50 1000.3
20260505023522 21 40 8.0 17.7 0.00 0.00 0.00 47 1000.1
20260505023031 21 114 8.0 17.7 0.00 0.00 0.00 46 1000.0
20260505022520 21 128 9.7 17.7 0.00 0.00 0.00 46 999.9
20260505022031 21 108 9.7 19.3 0.00 0.00 0.00 46 1000.0
20260505021533 21 121 9.7 19.3 0.00 0.00 0.00 47 1000.0
20260505021024 21 107 9.7 17.7 0.00 0.00 0.00 47 1000.0
20260505020534 21 146 9.7 16.1 0.00 0.00 0.00 47 1000.0
20260505020105 22 101 11.3 16.1 0.00 0.00 0.00 46 1000.0
20260505015525 22 101 11.3 14.5 0.00 0.00 0.00 46 999.8
20260505015036 22 93 6.4 19.3 0.00 0.00 0.00 45 999.8
20260505014518 22 88 11.3 22.5 0.00 0.00 0.00 45 999.6
20260505014030 22 110 14.5 22.5 0.00 0.00 0.00 44 999.6
20260505013540 22 89 12.9 20.9 0.00 0.00 0.00 43 999.4
20260505013020 23 91 12.9 22.5 0.00 0.00 0.00 42 999.4
20260505012531 23 92 14.5 22.5 0.00 0.00 0.00 42 999.4
20260505012041 23 114 12.9 22.5 0.00 0.00 0.00 42 999.4
20260505011524 23 97 12.9 22.5 0.00 0.00 0.00 41 999.5
20260505011028 23 97 12.9 20.9 0.00 0.00 0.00 40 999.5
20260505010600 23 113 12.9 20.9 0.00 0.00 0.00 39 999.6
20260505010019 24 81 12.9 20.9 0.00 0.00 0.00 40 999.5
20260505005530 24 103 9.7 14.5 0.00 0.00 0.00 39 999.5
20260505005022 25 67 3.2 12.9 0.00 0.00 0.00 39 999.6
20260505004523 25 99 8.0 12.9 0.00 0.00 0.00 38 999.7
20260505004033 25 81 8.0 12.9 0.00 0.00 0.00 37 999.8
20260505003544 25 107 8.0 12.9 0.00 0.00 0.00 37 999.9
20260505003032 25 113 8.0 12.9 0.00 0.00 0.00 38 1000.0
20260505002534 25 190 3.2 11.3 0.00 0.00 0.00 37 1000.0
20260505002025 26 60 4.8 19.3 0.00 0.00 0.00 36 999.9
20260505001528 26 33 12.9 19.3 0.00 0.00 0.00 33 999.9
20260505001018 25 84 9.7 17.7 0.00 0.00 0.00 32 999.9
20260505000529 25 53 6.4 16.1 0.00 0.00 0.00 33 999.9
20260505000033 25 15 6.4 19.3 0.00 0.00 0.00 35 999.8
20260504235531 25 38 9.7 19.3 0.00 0.00 0.00 35 1000.0
20260504235022 25 36 11.3 24.1 0.00 0.00 0.00 36 1000.0
20260504234533 26 32 14.5 24.1 0.00 0.00 0.00 35 1000.0
20260504234035 25 20 12.9 19.3 0.00 0.00 0.00 35 1000.0
20260504233546 26 46 11.3 20.9 0.00 0.00 0.00 34 1000.2
20260504233034 26 26 14.5 32.2 0.00 0.00 0.00 35 1000.3
20260504232545 26 26 16.1 32.2 0.00 0.00 0.00 34 1000.2
20260504232027 27 55 14.5 29.0 0.00 0.00 0.00 31 1000.0
20260504231538 27 25 16.1 25.7 0.00 0.00 0.00 30 1000.0
20260504231048 27 355 16.1 32.2 0.00 0.00 0.00 31 999.9
20260504230529 27 42 14.5 32.2 0.00 0.00 0.00 28 999.8
20260504230038 27 23 17.7 27.4 0.00 0.00 0.00 30 999.8
20260504225529 27 177 4.8 11.3 0.00 0.00 0.00 31 999.8
20260504225101 27 100 1.6 8.0 0.00 0.00 0.00 31 999.8
20260504224522 27 245 1.6 9.7 0.00 0.00 0.00 32 1000.0
20260504224032 27 333 6.4 14.5 0.00 0.00 0.00 31 1000.1
20260504223540 27 313 4.8 24.1 0.00 0.00 0.00 29 1000.2
20260504223040 27 327 14.5 29.0 0.00 0.00 0.00 31 1000.1
20260504222531 27 36 8.0 29.0 0.00 0.00 0.00 30 1000.6
20260504222041 28 97 9.7 17.7 0.00 0.00 0.00 26 1000.5
20260504221523 28 146 11.3 17.7 0.00 0.00 0.00 28 1000.3
20260504221034 28 114 6.4 16.1 0.00 0.00 0.00 28 1000.1
20260504220545 28 111 9.7 16.1 0.00 0.00 0.00 27 1000.0
20260504220025 28 217 4.8 16.1 0.00 0.00 0.00 28 1000.0
20260504215536 28 127 6.4 16.1 0.00 0.00 0.00 28 1000.1
20260504215025 28 131 4.8 20.9 0.00 0.00 0.00 28 1000.0
20260504214526 28 160 8.0 20.9 0.00 0.00 0.00 28 1000.1
20260504214037 29 101 9.7 20.9 0.00 0.00 0.00 25 1000.1
20260504213547 29 88 9.7 16.1 0.00 0.00 0.00 23 1000.1
20260504213035 29 101 4.8 14.5 0.00 0.00 0.00 25 1000.1
20260504212537 29 229 3.2 14.5 0.00 0.00 0.00 25 1000.1
20260504212027 29 99 4.8 17.7 0.00 0.00 0.00 24 1000.1
20260504211534 29 93 9.7 22.5 0.00 0.00 0.00 24 1000.1
20260504211036 29 107 12.9 22.5 0.00 0.00 0.00 24 1000.3
20260504210527 29 110 8.0 22.5 0.00 0.00 0.00 25 1000.3
20260504210025 29 96 6.4 24.1 0.00 0.00 0.00 23 1000.4
20260504205536 29 101 6.4 16.1 0.00 0.00 0.00 23 1000.4
20260504205047 29 269 6.4 14.5 0.00 0.00 0.00 22 1000.5
20260504204536 29 99 4.8 17.7 0.00 0.00 0.00 24 1000.6
20260504204018 29 103 9.7 17.7 0.00 0.00 0.00 24 1000.7
20260504203529 30 130 8.0 19.3 0.00 0.00 0.00 23 1000.7
20260504203038 30 108 9.7 19.3 0.00 0.00 0.00 25 1000.8
20260504202520 30 146 9.7 17.7 0.00 0.00 0.00 24 1001.0
20260504202031 30 90 8.0 20.9 0.00 0.00 0.00 26 1001.0
20260504201542 30 30 12.9 20.9 0.00 0.00 0.00 25 1001.0
20260504201024 29 61 6.4 19.3 0.00 0.00 0.00 25 1001.2
20260504200534 29 80 6.4 19.3 0.00 0.00 0.00 23 1001.3
20260504200022 29 50 6.4 24.1 0.00 0.00 0.00 27 1001.4
20260504195524 29 34 14.5 29.0 0.00 0.00 0.00 25 1001.4
20260504195031 29 48 9.7 29.0 0.00 0.00 0.00 26 1001.5
20260504194542 29 77 9.7 22.5 0.00 0.00 0.00 24 1001.5
20260504194024 29 76 9.7 25.7 0.00 0.00 0.00 27 1001.7
20260504193532 29 80 9.7 25.7 0.00 0.00 0.00 27 1001.7
20260504193041 28 65 8.0 19.3 0.00 0.00 0.00 26 1001.9
20260504192521 28 251 3.2 20.9 0.00 0.00 0.00 29 1001.9
20260504192032 28 11 9.7 20.9 0.00 0.00 0.00 31 1002.0
20260504191544 28 40 9.7 17.7 0.00 0.00 0.00 26 1002.0
20260504191033 28 38 8.0 19.3 0.00 0.00 0.00 28 1002.1
20260504190544 28 68 9.7 19.3 0.00 0.00 0.00 28 1002.2
20260504190024 27 36 11.3 20.9 0.00 0.00 0.00 26 1002.3
20260504185535 27 17 8.0 20.9 0.00 0.00 0.00 28 1002.4
20260504185017 27 68 6.4 20.9 0.00 0.00 0.00 27 1002.5
20260504184528 28 33 8.0 19.3 0.00 0.00 0.00 29 1002.5
20260504184039 28 101 6.4 19.3 0.00 0.00 0.00 28 1002.4
20260504183520 28 70 4.8 24.1 0.00 0.00 0.00 28 1002.5
20260504183029 28 50 12.9 24.1 0.00 0.00 0.00 30 1002.5
20260504182537 28 5 12.9 24.1 0.00 0.00 0.00 29 1002.5
20260504182018 28 10 14.5 24.1 0.00 0.00 0.00 28 1002.7
20260504181528 28 205 8.0 20.9 0.00 0.00 0.00 27 1002.6
20260504181029 28 23 9.7 22.5 0.00 0.00 0.00 28 1002.8
20260504180520 28 31 14.5 22.5 0.00 0.00 0.00 29 1002.9
20260504180029 28 51 12.9 22.5 0.00 0.00 0.00 28 1003.0
20260504175530 28 42 11.3 20.9 0.00 0.00 0.00 28 1002.9
20260504175020 28 40 6.4 20.9 0.00 0.00 0.00 28 1003.0
20260504174549 28 32 9.7 20.9 0.00 0.00 0.00 28 1003.0
20260504174039 28 128 9.7 22.5 0.00 0.00 0.00 27 1003.1
20260504173541 28 34 9.7 24.1 0.00 0.00 0.00 26 1003.1
20260504173029 29 5 12.9 24.1 0.00 0.00 0.00 25 1003.1
20260504172520 29 27 8.0 19.3 0.00 0.00 0.00 31 1003.1
20260504172021 29 42 6.4 19.3 0.00 0.00 0.00 24 1003.1
20260504171553 30 35 11.3 22.5 0.00 0.00 0.00 29 1003.1
20260504171023 30 34 11.3 22.5 0.00 0.00 0.00 26 1003.1
20260504170529 30 360 9.7 16.1 0.00 0.00 0.00 23 1003.1
20260504151058 25 292 3.2 8.0 0.00 0.00 0.00 42 1003.1
20260504150519 24 155 4.8 6.4 0.00 0.00 0.00 44 1003.1
20260504141023 18 198 8.0 14.5 0.00 0.00 0.00 53 1003.7
20260504140533 17 248 6.4 14.5 0.00 0.00 0.00 56 1003.7
20260504130535 12 244 3.2 11.3 0.00 0.00 0.00 65 1003.5
20260504110524 12 228 9.7 14.5 0.00 0.00 0.00 54 1003.3
20260504100528 14 194 6.4 14.5 0.00 0.00 0.00 49 1003.5
20260504081531 10 238 11.3 20.9 0.00 0.00 0.00 78 1004.5
20260504081042 10 228 12.9 20.9 0.00 0.00 0.00 77 1004.5
20260504080523 10 232 12.9 20.9 0.00 0.00 0.00 77 1004.5